Regional Weather Roundup
Issued by NWS

Home | Current Version | Previous Version | Text Only | Print | Product List | Glossary On
Versions: 1 2 3 4 5 6 7 8 9 10 11 12 13 14 15 16 17 18 19 20 21 22 23 24 25 26 27 28 29 30 31 32 33 34 35 36 37 38 39 40 41 42 43 44 45 46 47 48 49 50
000
ASUS44 KLIX 061012
RWRLA
LOUISIANA WEATHER ROUNDUP
NATIONAL WEATHER SERVICE NEW ORLEANS LA
500 AM CDT WED MAY 06 2015

NOTE: "FAIR" INDICATES FEW OR NO CLOUDS BELOW 12,000 FEET WITH NO
      SIGNIFICANT WEATHER AND/OR OBSTRUCTIONS TO VISIBILITY.
      SKY/WX - SKY CONDITION AND SIGNIFICANT WEATHER.
      TMP - AIR TEMPERATURE.    DP   - DEWPOINT TEMPERATURE.
      RH  - RELATIVE HUMIDITY.  PRES - PRESSURE.
      HX  - HEAT INDEX.         WCI  - WIND CHILL INDEX.

*  THESE STATIONS ARE NOT NWS OR FAA STATIONS AND ARE NOT UNDER
   NWS QUALITY CONTROL.

LAZ040-048-061>063-065-066-069-061100-
SOUTHEAST LOUISIANA

CITY           SKY/WX    TMP DP  RH WIND       PRES   REMARKS
N.O. AUDUBON   NOT AVBL
N.O. INTL ARPT PTCLDY    69  64  84 E5        30.04F
N.O. LAKEFRONT CLEAR     72  65  78 SE9       30.05F
SLIDELL        PTCLDY    61  60  97 CALM      30.06S
BATON ROUGE    CLEAR     61  59  93 CALM      30.05F
BOOTHVILLE     CLEAR     69  65  86 E6        30.05S
BELLE CHASSE   CLEAR     69  63  81 E6        30.04F
BOGALUSA*        N/A     58  55  89 CALM      30.09S
GALLIANO*      MOSUNNY   72  67  86 CALM      30.04S
NEW ROADS*     FAIR      63  61  94 CALM      30.05S
GONZALES*      FAIR      62  62 100 CALM      30.04S
HAMMOND*       CLEAR     63  59  88 CALM      30.07F
HOUMA*         MOCLDY    65  65  99 CALM      30.03F
PORT FOURCHON* MOSUNNY   73  68  83 E13       30.06S

$$

LAZ041-044-053-054-061100-
SOUTHWEST LOUISIANA

CITY           SKY/WX    TMP DP  RH WIND       PRES   REMARKS
LAKE CHARLES   CLEAR     67  64  90 E8        30.00F
LAFAYETTE      CLEAR     65  63  93 CALM      30.03F
PATTERSON      PTCLDY   N/A N/A N/A E3        30.04S
SALT POINT       N/A     67  65  93 CALM      30.01F
NEW IBERIA       N/A    N/A N/A N/A MISG      30.04S
CHENAULT AIRPK CLEAR     65  64  95 E6        30.01F

$$

LAZ027-028-061100-
CENTRAL LOUISIANA

CITY           SKY/WX    TMP DP  RH WIND       PRES   REMARKS
FORT POLK      CLOUDY    66  62  87 SE8       30.01F
ALEXANDRIA INT CLEAR     61  59  93 E5        30.03S
ALEXANDRIA     CLEAR     59  56  89 CALM      30.06S

$$

LAZ001-002-061100-
NORTHWEST LOUISIANA

CITY           SKY/WX    TMP DP  RH WIND       PRES   REMARKS
SHREVEPORT     PTCLDY    65  62  90 SE6       30.02F
BARKSDALE AFB  PTCLDY    63  63  99 SE6       30.03S
DTN SHREVEPORT NOT AVBL

$$

LAZ014-016-061100-
NORTHEAST LOUISIANA

CITY           SKY/WX    TMP DP  RH WIND       PRES   REMARKS
MONROE         CLEAR     59  57  93 CALM      30.08S
TALLULAH       CLEAR     58  56  93 CALM      30.09R

$$



USA.gov is the U.S. government's official web portal to all federal, state and local government web resources and services.